Погода в Агре

Индия     27°11′23″N   77°59′40″E
темп.,
°C
ветер,
м/с
пор.,
м/с
влажн.,
%
обл.,
%
осадки,
мм/ч
давл.,
гПа
погр.,
м
13 мая, чт
чт1323:30+29юз3544100 1.9 1001344
02:30+28сз2346100 0.0 1001346
05:30+28юз4747100 0.1 1003502
08:30+30ююв3340100 0.0 1004884
11:30+34ююв222991 0.0 10041695
14:30+37ююв23220 0.0 10012785
17:30+38юв34208 0.1 9973080
20:30+25св10136462 2.0 1002355
14 мая, пт
пт1423:30+30всв25296 2.2 1002215
02:30+28св344890 0.0 1003308
05:30+27в47535 0.0 1002365
08:30+30в34445 0.0 1004738
11:30+35юв33294 0.0 10031667
14:30+39вюв13210 0.0 10002729
17:30+39ссв24181 0.0 9983292
20:30+36св13257 0.1 1000120
15 мая, сб
сб1523:30+34св34276 0.1 1001149
02:30+33вюв22292 0.0 100058
05:30+31в23331 0.0 100167
08:30+36вюв332642 0.0 1003521
11:30+40юв32175 0.0 10012413
14:30+41юв241432 0.0 9993926
17:30+39всв551889 0.0 9991352
20:30+36всв472442 0.0 1000221
16 мая, вс
вс1623:30+34всв372528 0.0 1001234
02:30+33всв352588 0.0 1000127
05:30+32всв2427100 0.0 100191
08:30+37в46209 0.0 1003601
11:30+41в441465 0.0 10031869
14:30+43всв3312100 0.0 10004322
17:30+43св2211100 0.0 9983485
20:30+39ссв361413 0.0 1000150
17 мая, пн
пн1723:30+37св241695 0.0 100093
02:30+37всв2417100 0.0 100099
05:30+35св2219100 0.0 100151
08:30+38всв1217100 0.0 1003357
11:30+39зюз3314100 0.0 1003741
14:30+39сз341788 0.0 1001423
17:30+40с2414100 0.0 9991758
20:30+38зсз4718100 0.0 1002307